Location: Carabito
(9.8355°N, 67.9249°W)
Time: 22:05:38
(UTC+00:00)

Cosmos 2219 - Pass Details

Date: 23 May 2024
Orbit: 834 x 858 km, 71.1° (Epoch: 22 June)

Event Time Altitude Azimuth Distance (km) Brightness Sun altitude
Exits shadow 08:51:47 10° 186° (S) 2,514 5.4 -18.5°
Reaches altitude 10° 08:51:53 10° 186° (S) 2,476 5.3 -18.5°
Maximum altitude 08:57:31 66° 105° (ESE) 923 3.5 -17.2°
Drops below altitude 10° 09:03:07 10° 24° (NNE) 2,460 6.3 -16.0°
Sets 09:05:33 0° 21° (NNE) 3,391 7.1 -15.4°
